Hourly Data Report for July 23, 2011

HALIFAX STANFIELD INT'L A
NOVA SCOTIA

44°52'48.060" N
63°30'00.050" W
145.40 m
8202250
71395
YHZ

Download Data

Hourly Data (July 2011)
Hourly Data Report for July 23, 2011
TIME
LST
Temp Definition
°C
Dew Point Definition
°C
Rel Hum Definition
%
Precip. Amount Definition
mm

Wind Dir Definition
10's deg

Wind Spd Definition
km/h
Visibility Definition
km
Stn Press Definition
kPa
Hmdx Definition


Wind Chill Definition


Weather Definition


00:00 19.9 18.2 90   33 15 8.0 99.12     Fog
01:00 19.5 17.9 90   32 13 8.0 99.17     Fog
02:00 18.3 17.1 93   35 13 12.9 99.16     Mostly Cloudy
03:00 17.6 16.4 93   33 9 6.4 99.20     Fog
04:00 17.3 16.3 94   34 9 4.8 99.22     Fog
05:00 17.5 16.8 96   35 11 0.2 99.30     Fog
06:00 17.4 16.9 97     0 0.2 99.33     Fog
07:00 17.6 17.1 97     0 0.4 99.43     Fog
08:00 18.3 17.8 97   18 7 1.2 99.47     Fog
09:00 22.5 19.1 81   17 7 24.1 99.42 29   Mainly Clear
10:00 24.4 19.1 72   13 11 24.1 99.40 31   Mostly Cloudy
11:00 26.5 20.3 69   16 13 24.1 99.38 34   Mostly Cloudy
12:00 27.7 20.6 65   19 15 24.1 99.32 36   Mostly Cloudy
13:00 23.8 19.2 75   18 30 24.1 99.34 31   Mostly Cloudy
14:00 21.0 18.4 85   17 26 24.1 99.32 27   Rain Showers
15:00 19.0 17.6 92   16 20 1.6 99.18     Fog
16:00 18.9 17.2 90   17 26 4.8 99.13     Fog
17:00 18.5 16.8 90   16 19 4.8 98.97     Fog
18:00 17.7 16.2 91   17 22 3.2 98.96     Fog
19:00 18.8 17.0 89   19 20 4.8 98.95     Haze
20:00 18.3 17.0 92   21 20 4.8 98.92     Haze
21:00 18.6 17.4 93   20 20 4.8 98.89     Haze
22:00 19.0 17.3 90   32 22 3.2 98.96     Fog
23:00 17.9 16.8 93   28 7 4.8 98.94     Fog

Notes on Data Quality.

Legend

  • E = Estimated
  • M = Missing
  • NA = Not Available*
  • [empty] = Indicates an unobserved value
Date modified: